"Sample Date","Sample Time","Sample Value","Units","Flow Rate","Number Channels","Micron Size 0","Counts/Channel 0","Micron Size 1","Counts/Channel 1","Micron Size 2","Counts/Channel 2","Micron Size 3","Counts/Channel 3","Micron Size 4","Counts/Channel 4","Micron Size 5","Counts/Channel 5","Micron Size 6","Counts/Channel 6","Micron Size 7","Counts/Channel 7","Micron Size 8","Counts/Channel 8","Micron Size 9","Counts/Channel 9","Micron Size 10","Counts/Channel 10","Micron Size 11","Counts/Channel 11","Micron Size 12","Counts/Channel 12","Micron Size 13","Counts/Channel 13","Micron Size 14","Counts/Channel 14","Micron Size 15","Counts/Channel 15","Micron Size 16","Counts/Channel 16","Micron Size 17","Counts/Channel 17","Micron Size 18","Counts/Channel 18","Micron Size 19","Counts/Channel 19","Micron Size 20","Counts/Channel 20","Micron Size 21","Counts/Channel 21","Micron Size 22","Counts/Channel 22","Micron Size 23","Counts/Channel 23","Micron Size 24","Counts/Channel 24","Micron Size 25","Counts/Channel 25","Micron Size 26","Counts/Channel 26","Micron Size 27","Counts/Channel 27","Micron Size 28","Counts/Channel 28","Micron Size 29","Counts/Channel 29","Micron Size 30","Counts/Channel 30","Micron Size 31","Counts/Channel 31"
"05/12/08","02:00:04",13477.000,"cc",28317.934,6,0.100,11274.000,0.200,2020.000,0.300,173.000,0.500,9.000,1.000,1.000,5.000,0
"05/12/08","02:00:10",18751.000,"cc",28311.178,6,0.100,15718.000,0.200,2812.000,0.300,208.000,0.500,11.000,1.000,2.000,5.000,0
"05/12/08","02:00:16",18266.000,"cc",28298.602,6,0.100,15202.000,0.200,2834.000,0.300,225.000,0.500,5.000,1.000,0,5.000,0
"05/12/08","02:00:22",20652.000,"cc",28319.469,6,0.100,17419.000,0.200,2986.000,0.300,236.000,0.500,10.000,1.000,1.000,5.000,0
"05/12/08","02:00:28",19921.000,"cc",28307.606,6,0.100,16688.000,0.200,2975.000,0.300,247.000,0.500,11.000,1.000,0,5.000,0
"05/12/08","02:00:34",15300.000,"cc",28320.746,6,0.100,12790.000,0.200,2322.000,0.300,179.000,0.500,9.000,1.000,0,5.000,0
"05/12/08","02:00:40",13396.000,"cc",28355.527,6,0.100,11136.000,0.200,2094.000,0.300,160.000,0.500,6.000,1.000,0,5.000,0
"05/12/08","02:00:46",19634.000,"cc",28292.869,6,0.100,16475.000,0.200,2908.000,0.300,240.000,0.500,10.000,1.000,1.000,5.000,0
"05/12/08","02:00:52",17332.000,"cc",28338.930,6,0.100,14552.000,0.200,2557.000,0.300,211.000,0.500,11.000,1.000,1.000,5.000,0
"05/12/08","02:00:58",21284.000,"cc",28296.500,6,0.100,17881.000,0.200,3135.000,0.300,253.000,0.500,13.000,1.000,2.000,5.000,0
"05/12/08","02:01:04",26247.000,"cc",28292.889,6,0.100,22059.000,0.200,3895.000,0.300,279.000,0.500,13.000,1.000,1.000,5.000,0
"05/12/08","02:01:10",23415.000,"cc",28313.162,6,0.100,19668.000,0.200,3448.000,0.300,289.000,0.500,8.000,1.000,2.000,5.000,0
"05/12/08","02:01:16",15038.000,"cc",28298.484,6,0.100,12689.000,0.200,2165.000,0.300,171.000,0.500,13.000,1.000,0,5.000,0
"05/12/08","02:01:22",14173.000,"cc",28366.238,6,0.100,11895.000,0.200,2111.000,0.300,161.000,0.500,4.000,1.000,2.000,5.000,0
"05/12/08","02:01:28",16815.000,"cc",28288.877,6,0.100,14042.000,0.200,2603.000,0.300,165.000,0.500,5.000,1.000,0,5.000,0
"05/12/08","02:01:34",15475.000,"cc",28303.941,6,0.100,13030.000,0.200,2257.000,0.300,183.000,0.500,5.000,1.000,0,5.000,0
"05/12/08","02:01:40",16366.000,"cc",28337.889,6,0.100,13706.000,0.200,2458.000,0.300,193.000,0.500,8.000,1.000,1.000,5.000,0
"05/12/08","02:01:46",15490.000,"cc",28297.660,6,0.100,12931.000,0.200,2354.000,0.300,196.000,0.500,8.000,1.000,1.000,5.000,0
"05/12/08","02:01:52",18547.000,"cc",28309.117,6,0.100,15593.000,0.200,2747.000,0.300,194.000,0.500,11.000,1.000,2.000,5.000,0
"05/12/08","02:01:58",14616.000,"cc",28298.764,6,0.100,12195.000,0.200,2218.000,0.300,199.000,0.500,4.000,1.000,0,5.000,0
"05/12/08","02:02:04",16144.000,"cc",28348.223,6,0.100,13501.000,0.200,2461.000,0.300,178.000,0.500,4.000,1.000,0,5.000,0
"05/12/08","02:02:10",13628.000,"cc",28348.940,6,0.100,11373.000,0.200,2069.000,0.300,177.000,0.500,9.000,1.000,0,5.000,0
"05/12/08","02:02:16",24364.000,"cc",28291.666,6,0.100,20429.000,0.200,3653.000,0.300,269.000,0.500,12.000,1.000,1.000,5.000,0
"05/12/08","02:02:22",25653.000,"cc",28373.895,6,0.100,21448.000,0.200,3907.000,0.300,290.000,0.500,8.000,1.000,0,5.000,0
"05/12/08","02:02:28",15987.000,"cc",28225.342,6,0.100,13458.000,0.200,2340.000,0.300,182.000,0.500,6.000,1.000,1.000,5.000,0
"05/12/08","02:02:34",19089.000,"cc",28318.734,6,0.100,15999.000,0.200,2861.000,0.300,222.000,0.500,7.000,1.000,0,5.000,0
"05/12/08","02:02:40",25123.000,"cc",28333.764,6,0.100,21149.000,0.200,3667.000,0.300,297.000,0.500,10.000,1.000,0,5.000,0
"05/12/08","02:02:46",23985.000,"cc",28270.326,6,0.100,20013.000,0.200,3673.000,0.300,291.000,0.500,8.000,1.000,0,5.000,0
"05/12/08","02:02:52",21644.000,"cc",28341.729,6,0.100,18204.000,0.200,3196.000,0.300,234.000,0.500,10.000,1.000,0,5.000,0
"05/12/08","02:02:58",19701.000,"cc",28327.334,6,0.100,16492.000,0.200,2997.000,0.300,205.000,0.500,7.000,1.000,0,5.000,0
"05/12/08","02:03:04",16110.000,"cc",28350.367,6,0.100,13631.000,0.200,2288.000,0.300,182.000,0.500,9.000,1.000,0,5.000,0
"05/12/08","02:03:10",16799.000,"cc",28347.398,6,0.100,14100.000,0.200,2506.000,0.300,182.000,0.500,11.000,1.000,0,5.000,0
"05/12/08","02:03:16",13476.000,"cc",28330.086,6,0.100,11271.000,0.200,2048.000,0.300,146.000,0.500,11.000,1.000,0,5.000,0
"05/12/08","02:03:22",14600.000,"cc",28299.375,6,0.100,12214.000,0.200,2221.000,0.300,159.000,0.500,6.000,1.000,0,5.000,0
"05/12/08","02:03:28",16793.000,"cc",28311.688,6,0.100,14068.000,0.200,2525.000,0.300,192.000,0.500,8.000,1.000,0,5.000,0
"05/12/08","02:03:34",13262.000,"cc",28258.656,6,0.100,11018.000,0.200,2069.000,0.300,166.000,0.500,8.000,1.000,1.000,5.000,0
"05/12/08","02:03:40",16221.000,"cc",28320.682,6,0.100,13555.000,0.200,2468.000,0.300,190.000,0.500,8.000,1.000,0,5.000,0
"05/12/08","02:03:46",17796.000,"cc",28337.022,6,0.100,14853.000,0.200,2727.000,0.300,208.000,0.500,8.000,1.000,0,5.000,0
"05/12/08","02:03:52",21193.000,"cc",28326.852,6,0.100,17671.000,0.200,3251.000,0.300,263.000,0.500,8.000,1.000,0,5.000,0
"05/12/08","02:03:58",20030.000,"cc",28339.197,6,0.100,16801.000,0.200,2983.000,0.300,231.000,0.500,15.000,1.000,0,5.000,0
"05/12/08","02:04:04",18681.000,"cc",28279.008,6,0.100,15780.000,0.200,2710.000,0.300,183.000,0.500,7.000,1.000,1.000,5.000,0
"05/12/08","02:04:10",22922.000,"cc",28328.201,6,0.100,19298.000,0.200,3369.000,0.300,243.000,0.500,12.000,1.000,0,5.000,0
"05/12/08","02:04:16",19034.000,"cc",28308.891,6,0.100,15920.000,0.200,2938.000,0.300,171.000,0.500,5.000,1.000,0,5.000,0
"05/12/08","02:04:22",23511.000,"cc",28286.551,6,0.100,19692.000,0.200,3551.000,0.300,260.000,0.500,8.000,1.000,0,5.000,0
"05/12/08","02:04:28",35362.000,"cc",28331.068,6,0.100,29785.000,0.200,5180.000,0.300,380.000,0.500,16.000,1.000,1.000,5.000,0
"05/12/08","02:04:34",33215.000,"cc",28269.598,6,0.100,27910.000,0.200,4929.000,0.300,365.000,0.500,10.000,1.000,1.000,5.000,0
"05/12/08","02:04:40",30424.000,"cc",28328.691,6,0.100,25606.000,0.200,4459.000,0.300,344.000,0.500,14.000,1.000,1.000,5.000,0
"05/12/08","02:04:46",23376.000,"cc",28358.943,6,0.100,19677.000,0.200,3448.000,0.300,248.000,0.500,3.000,1.000,0,5.000,0
"05/12/08","02:04:52",20879.000,"cc",28251.074,6,0.100,17545.000,0.200,3116.000,0.300,211.000,0.500,7.000,1.000,0,5.000,0
"05/12/08","02:04:58",22179.000,"cc",28302.703,6,0.100,18618.000,0.200,3320.000,0.300,227.000,0.500,13.000,1.000,1.000,5.000,0
"05/12/08","02:05:04",14757.000,"cc",28381.680,6,0.100,12324.000,0.200,2237.000,0.300,185.000,0.500,11.000,1.000,0,5.000,0
"05/12/08","02:05:10",10534.000,"cc",28347.436,6,0.100,8700.000,0.200,1701.000,0.300,128.000,0.500,5.000,1.000,0,5.000,0
"05/12/08","02:05:16",15024.000,"cc",28341.131,6,0.100,12638.000,0.200,2242.000,0.300,140.000,0.500,4.000,1.000,0,5.000,0
"05/12/08","02:05:22",11405.000,"cc",28300.541,6,0.100,9508.000,0.200,1761.000,0.300,130.000,0.500,6.000,1.000,0,5.000,0
"05/12/08","02:05:28",9822.000,"cc",28295.875,6,0.100,8170.000,0.200,1537.000,0.300,111.000,0.500,4.000,1.000,0,5.000,0
"05/12/08","02:05:34",16357.000,"cc",28337.406,6,0.100,13695.000,0.200,2447.000,0.300,206.000,0.500,8.000,1.000,1.000,5.000,0
"05/12/08","02:05:40",17083.000,"cc",28288.555,6,0.100,14275.000,0.200,2590.000,0.300,215.000,0.500,3.000,1.000,0,5.000,0
"05/12/08","02:05:46",17249.000,"cc",28261.152,6,0.100,14463.000,0.200,2583.000,0.300,192.000,0.500,11.000,1.000,0,5.000,0
"05/12/08","02:05:52",22625.000,"cc",28319.004,6,0.100,19108.000,0.200,3264.000,0.300,242.000,0.500,11.000,1.000,0,5.000,0
"05/12/08","02:05:58",18566.000,"cc",28338.609,6,0.100,15573.000,0.200,2785.000,0.300,196.000,0.500,11.000,1.000,1.000,5.000,0
"05/12/08","02:06:04",13005.000,"cc",28245.596,6,0.100,10848.000,0.200,1993.000,0.300,156.000,0.500,8.000,1.000,0,5.000,0
"05/12/08","02:06:10",15482.000,"cc",28378.971,6,0.100,13004.000,0.200,2297.000,0.300,170.000,0.500,11.000,1.000,0,5.000,0
"05/12/08","02:06:16",15196.000,"cc",28319.359,6,0.100,12724.000,0.200,2277.000,0.300,187.000,0.500,7.000,1.000,1.000,5.000,0
"05/12/08","02:06:22",13279.000,"cc",28296.170,6,0.100,11192.000,0.200,1940.000,0.300,139.000,0.500,8.000,1.000,0,5.000,0
"05/12/08","02:06:28",10747.000,"cc",28362.787,6,0.100,8905.000,0.200,1701.000,0.300,133.000,0.500,8.000,1.000,0,5.000,0
"05/12/08","02:06:34",9771.000,"cc",28351.406,6,0.100,8111.000,0.200,1546.000,0.300,109.000,0.500,3.000,1.000,2.000,5.000,0
"05/12/08","02:06:40",8116.000,"cc",28284.092,6,0.100,6769.000,0.200,1247.000,0.300,84.000,0.500,16.000,1.000,0,5.000,0
"05/12/08","02:06:46",10382.000,"cc",28338.307,6,0.100,8619.000,0.200,1628.000,0.300,125.000,0.500,10.000,1.000,0,5.000,0
"05/12/08","02:06:52",15206.000,"cc",28336.297,6,0.100,12718.000,0.200,2268.000,0.300,204.000,0.500,15.000,1.000,1.000,5.000,0
"05/12/08","02:06:58",14498.000,"cc",28319.246,6,0.100,12154.000,0.200,2175.000,0.300,160.000,0.500,8.000,1.000,1.000,5.000,0
"05/12/08","02:07:04",19461.000,"cc",28278.025,6,0.100,16393.000,0.200,2870.000,0.300,188.000,0.500,10.000,1.000,0,5.000,0
"05/12/08","02:07:10",15905.000,"cc",28313.803,6,0.100,13310.000,0.200,2405.000,0.300,177.000,0.500,13.000,1.000,0,5.000,0
"05/12/08","02:07:16",14199.000,"cc",28330.760,6,0.100,11951.000,0.200,2088.000,0.300,151.000,0.500,9.000,1.000,0,5.000,0
"05/12/08","02:07:22",18372.000,"cc",28299.930,6,0.100,15574.000,0.200,2615.000,0.300,177.000,0.500,6.000,1.000,0,5.000,0
"05/12/08","02:07:28",23651.000,"cc",28339.654,6,0.100,19969.000,0.200,3455.000,0.300,210.000,0.500,17.000,1.000,0,5.000,0
"05/12/08","02:07:34",19957.000,"cc",28291.629,6,0.100,16749.000,0.200,3006.000,0.300,196.000,0.500,5.000,1.000,1.000,5.000,0
"05/12/08","02:07:40",14376.000,"cc",28316.033,6,0.100,12107.000,0.200,2129.000,0.300,131.000,0.500,9.000,1.000,0,5.000,0
"05/12/08","02:07:46",10346.000,"cc",28388.320,6,0.100,8722.000,0.200,1516.000,0.300,101.000,0.500,6.000,1.000,1.000,5.000,0
"05/12/08","02:07:52",15914.000,"cc",28294.225,6,0.100,13399.000,0.200,2362.000,0.300,141.000,0.500,11.000,1.000,1.000,5.000,0
"05/12/08","02:07:58",10419.000,"cc",28254.473,6,0.100,8696.000,0.200,1606.000,0.300,113.000,0.500,4.000,1.000,0,5.000,0
"05/12/08","02:08:04",12513.000,"cc",28293.660,6,0.100,10508.000,0.200,1858.000,0.300,139.000,0.500,7.000,1.000,1.000,5.000,0
"05/12/08","02:08:10",15772.000,"cc",28407.256,6,0.100,13252.000,0.200,2349.000,0.300,160.000,0.500,11.000,1.000,0,5.000,0
"05/12/08","02:08:16",14246.000,"cc",28338.822,6,0.100,12023.000,0.200,2064.000,0.300,150.000,0.500,9.000,1.000,0,5.000,0
"05/12/08","02:08:22",16965.000,"cc",28314.258,6,0.100,14246.000,0.200,2554.000,0.300,157.000,0.500,7.000,1.000,1.000,5.000,0
"05/12/08","02:08:28",19290.000,"cc",28262.660,6,0.100,16340.000,0.200,2781.000,0.300,161.000,0.500,8.000,1.000,0,5.000,0
"05/12/08","02:08:34",20518.000,"cc",28298.027,6,0.100,17355.000,0.200,2949.000,0.300,208.000,0.500,6.000,1.000,0,5.000,0
"05/12/08","02:08:40",21519.000,"cc",28303.553,6,0.100,18292.000,0.200,3022.000,0.300,195.000,0.500,10.000,1.000,0,5.000,0
"05/12/08","02:08:46",15709.000,"cc",28324.227,6,0.100,13232.000,0.200,2311.000,0.300,157.000,0.500,8.000,1.000,1.000,5.000,0
"05/12/08","02:08:52",9984.000,"cc",28316.500,6,0.100,8398.000,0.200,1483.000,0.300,99.000,0.500,4.000,1.000,0,5.000,0
"05/12/08","02:08:58",11999.000,"cc",28354.400,6,0.100,10076.000,0.200,1749.000,0.300,156.000,0.500,17.000,1.000,1.000,5.000,0
"05/12/08","02:09:04",13014.000,"cc",28307.947,6,0.100,10968.000,0.200,1882.000,0.300,153.000,0.500,10.000,1.000,1.000,5.000,0
"05/12/08","02:09:10",13636.000,"cc",28261.756,6,0.100,11580.000,0.200,1898.000,0.300,145.000,0.500,13.000,1.000,0,5.000,0
"05/12/08","02:09:16",11691.000,"cc",28310.670,6,0.100,9780.000,0.200,1763.000,0.300,137.000,0.500,10.000,1.000,1.000,5.000,0
"05/12/08","02:09:22",17878.000,"cc",28300.016,6,0.100,15152.000,0.200,2513.000,0.300,198.000,0.500,14.000,1.000,1.000,5.000,0
"05/12/08","02:09:28",17889.000,"cc",28337.234,6,0.100,15066.000,0.200,2613.000,0.300,198.000,0.500,11.000,1.000,1.000,5.000,0
"05/12/08","02:09:34",10898.000,"cc",28318.119,6,0.100,9162.000,0.200,1605.000,0.300,122.000,0.500,8.000,1.000,1.000,5.000,0
"05/12/08","02:09:40",7087.000,"cc",28351.131,6,0.100,5918.000,0.200,1077.000,0.300,84.000,0.500,7.000,1.000,1.000,5.000,0
"05/12/08","02:09:46",10688.000,"cc",28284.012,6,0.100,8963.000,0.200,1582.000,0.300,138.000,0.500,4.000,1.000,1.000,5.000,0
"05/12/08","02:09:52",13437.000,"cc",28330.346,6,0.100,11401.000,0.200,1914.000,0.300,117.000,0.500,5.000,1.000,0,5.000,0
"05/12/08","02:09:58",12038.000,"cc",28315.473,6,0.100,10171.000,0.200,1731.000,0.300,130.000,0.500,6.000,1.000,0,5.000,0
"05/12/08","02:10:04",8532.000,"cc",28264.857,6,0.100,7175.000,0.200,1254.000,0.300,96.000,0.500,7.000,1.000,0,5.000,0
"05/12/08","02:10:10",9205.000,"cc",28348.545,6,0.100,7751.000,0.200,1341.000,0.300,101.000,0.500,12.000,1.000,0,5.000,0
"05/12/08","02:10:16",11638.000,"cc",28308.643,6,0.100,9849.000,0.200,1679.000,0.300,100.000,0.500,10.000,1.000,0,5.000,0
"05/12/08","02:10:22",17539.000,"cc",28297.711,6,0.100,14874.000,0.200,2471.000,0.300,187.000,0.500,7.000,1.000,0,5.000,0
"05/12/08","02:10:28",20967.000,"cc",28310.537,6,0.100,17721.000,0.200,3040.000,0.300,200.000,0.500,6.000,1.000,0,5.000,0
"05/12/08","02:10:34",18913.000,"cc",28333.272,6,0.100,16039.000,0.200,2672.000,0.300,193.000,0.500,9.000,1.000,0,5.000,0
"05/12/08","02:10:40",18270.000,"cc",28325.596,6,0.100,15450.000,0.200,2640.000,0.300,172.000,0.500,8.000,1.000,0,5.000,0
"05/12/08","02:10:46",14406.000,"cc",28309.883,6,0.100,12083.000,0.200,2154.000,0.300,158.000,0.500,10.000,1.000,1.000,5.000,0
"05/12/08","02:10:52",17183.000,"cc",28335.234,6,0.100,14523.000,0.200,2475.000,0.300,177.000,0.500,7.000,1.000,1.000,5.000,0
"05/12/08","02:10:58",18245.000,"cc",28221.000,6,0.100,15455.000,0.200,2597.000,0.300,184.000,0.500,9.000,1.000,0,5.000,0
"05/12/08","02:11:04",22396.000,"cc",28359.754,6,0.100,19109.000,0.200,3061.000,0.300,213.000,0.500,13.000,1.000,0,5.000,0
"05/12/08","02:11:10",19176.000,"cc",28382.666,6,0.100,16327.000,0.200,2676.000,0.300,165.000,0.500,8.000,1.000,0,5.000,0
"05/12/08","02:11:16",12487.000,"cc",28299.803,6,0.100,10478.000,0.200,1879.000,0.300,124.000,0.500,6.000,1.000,0,5.000,0
"05/12/08","02:11:22",12382.000,"cc",28335.065,6,0.100,10462.000,0.200,1794.000,0.300,117.000,0.500,8.000,1.000,1.000,5.000,0
"05/12/08","02:11:28",13624.000,"cc",28313.385,6,0.100,11564.000,0.200,1932.000,0.300,122.000,0.500,5.000,1.000,1.000,5.000,0
"05/12/08","02:11:34",9689.000,"cc",28350.961,6,0.100,8186.000,0.200,1391.000,0.300,109.000,0.500,3.000,1.000,0,5.000,0
"05/12/08","02:11:40",10404.000,"cc",28331.035,6,0.100,8849.000,0.200,1436.000,0.300,110.000,0.500,9.000,1.000,0,5.000,0
"05/12/08","02:11:46",17728.000,"cc",28288.182,6,0.100,15046.000,0.200,2529.000,0.300,149.000,0.500,4.000,1.000,0,5.000,0
"05/12/08","02:11:52",12902.000,"cc",28292.807,6,0.100,10957.000,0.200,1821.000,0.300,115.000,0.500,9.000,1.000,0,5.000,0
"05/12/08","02:11:58",16012.000,"cc",28290.863,6,0.100,13680.000,0.200,2187.000,0.300,129.000,0.500,16.000,1.000,0,5.000,0
"05/12/08","02:12:04",13697.000,"cc",28349.898,6,0.100,11620.000,0.200,1916.000,0.300,148.000,0.500,13.000,1.000,0,5.000,0
"05/12/08","02:12:10",9365.000,"cc",28296.578,6,0.100,7936.000,0.200,1343.000,0.300,80.000,0.500,6.000,1.000,0,5.000,0
"05/12/08","02:12:16",11418.000,"cc",28344.424,6,0.100,9678.000,0.200,1612.000,0.300,119.000,0.500,9.000,1.000,0,5.000,0
"05/12/08","02:12:22",11302.000,"cc",28298.531,6,0.100,9631.000,0.200,1560.000,0.300,101.000,0.500,10.000,1.000,0,5.000,0
"05/12/08","02:12:28",9819.000,"cc",28319.106,6,0.100,8280.000,0.200,1426.000,0.300,100.000,0.500,13.000,1.000,0,5.000,0
"05/12/08","02:12:34",13082.000,"cc",28348.861,6,0.100,11088.000,0.200,1866.000,0.300,119.000,0.500,9.000,1.000,0,5.000,0
"05/12/08","02:12:40",15922.000,"cc",28312.184,6,0.100,13597.000,0.200,2181.000,0.300,139.000,0.500,4.000,1.000,1.000,5.000,0
"05/12/08","02:12:46",16762.000,"cc",28294.969,6,0.100,14242.000,0.200,2342.000,0.300,165.000,0.500,13.000,1.000,0,5.000,0
"05/12/08","02:12:52",16519.000,"cc",28318.016,6,0.100,13992.000,0.200,2349.000,0.300,167.000,0.500,10.000,1.000,1.000,5.000,0
"05/12/08","02:12:58",16205.000,"cc",28311.344,6,0.100,13737.000,0.200,2313.000,0.300,143.000,0.500,11.000,1.000,1.000,5.000,0
"05/12/08","02:13:04",25329.000,"cc",28303.367,6,0.100,21602.000,0.200,3516.000,0.300,198.000,0.500,13.000,1.000,0,5.000,0
"05/12/08","02:13:10",32922.000,"cc",28313.393,6,0.100,28177.000,0.200,4481.000,0.300,253.000,0.500,11.000,1.000,0,5.000,0
"05/12/08","02:13:16",26940.000,"cc",28339.141,6,0.100,22946.000,0.200,3760.000,0.300,222.000,0.500,12.000,1.000,0,5.000,0
"05/12/08","02:13:22",18576.000,"cc",28331.088,6,0.100,15868.000,0.200,2563.000,0.300,124.000,0.500,21.000,1.000,0,5.000,0
"05/12/08","02:13:28",19233.000,"cc",28321.963,6,0.100,16395.000,0.200,2655.000,0.300,170.000,0.500,13.000,1.000,0,5.000,0
"05/12/08","02:13:34",14075.000,"cc",28291.424,6,0.100,11931.000,0.200,2006.000,0.300,126.000,0.500,12.000,1.000,0,5.000,0
"05/12/08","02:13:40",18203.000,"cc",28293.570,6,0.100,15548.000,0.200,2475.000,0.300,165.000,0.500,14.000,1.000,1.000,5.000,0
"05/12/08","02:13:46",15509.000,"cc",28355.670,6,0.100,13182.000,0.200,2192.000,0.300,122.000,0.500,13.000,1.000,0,5.000,0
"05/12/08","02:13:52",14475.000,"cc",28315.688,6,0.100,12370.000,0.200,1959.000,0.300,138.000,0.500,8.000,1.000,0,5.000,0
"05/12/08","02:13:58",19078.000,"cc",28306.856,6,0.100,16297.000,0.200,2617.000,0.300,149.000,0.500,15.000,1.000,0,5.000,0
"05/12/08","02:14:04",35403.000,"cc",28347.328,6,0.100,30246.000,0.200,4883.000,0.300,264.000,0.500,10.000,1.000,0,5.000,0
"05/12/08","02:14:10",21073.000,"cc",28308.242,6,0.100,17924.000,0.200,2972.000,0.300,169.000,0.500,8.000,1.000,0,5.000,0
"05/12/08","02:14:16",17624.000,"cc",28300.895,6,0.100,15023.000,0.200,2438.000,0.300,157.000,0.500,6.000,1.000,0,5.000,0
"05/12/08","02:14:22",13683.000,"cc",28307.012,6,0.100,11649.000,0.200,1921.000,0.300,100.000,0.500,13.000,1.000,0,5.000,0
"05/12/08","02:14:28",12911.000,"cc",28321.029,6,0.100,10991.000,0.200,1786.000,0.300,126.000,0.500,8.000,1.000,0,5.000,0
"05/12/08","02:14:34",9495.000,"cc",28283.014,6,0.100,8025.000,0.200,1371.000,0.300,88.000,0.500,11.000,1.000,0,5.000,0
"05/12/08","02:14:40",15770.000,"cc",28315.908,6,0.100,13450.000,0.200,2187.000,0.300,123.000,0.500,9.000,1.000,1.000,5.000,0
"05/12/08","02:14:46",22126.000,"cc",28327.486,6,0.100,18745.000,0.200,3178.000,0.300,194.000,0.500,9.000,1.000,0,5.000,0
"05/12/08","02:14:52",18802.000,"cc",28333.436,6,0.100,16044.000,0.200,2602.000,0.300,150.000,0.500,6.000,1.000,0,5.000,0
"05/12/08","02:14:58",15626.000,"cc",28338.877,6,0.100,13270.000,0.200,2218.000,0.300,129.000,0.500,8.000,1.000,1.000,5.000,0
"05/12/08","02:15:04",12287.000,"cc",28328.512,6,0.100,10401.000,0.200,1738.000,0.300,135.000,0.500,13.000,1.000,0,5.000,0
"05/12/08","02:15:10",15897.000,"cc",28321.426,6,0.100,13543.000,0.200,2196.000,0.300,148.000,0.500,10.000,1.000,0,5.000,0
"05/12/08","02:15:16",12303.000,"cc",28327.998,6,0.100,10424.000,0.200,1774.000,0.300,96.000,0.500,8.000,1.000,1.000,5.000,0
"05/12/08","02:15:22",13741.000,"cc",28313.561,6,0.100,11654.000,0.200,1939.000,0.300,133.000,0.500,14.000,1.000,1.000,5.000,0
"05/12/08","02:15:28",9621.000,"cc",28257.838,6,0.100,8139.000,0.200,1384.000,0.300,86.000,0.500,11.000,1.000,1.000,5.000,0
"05/12/08","02:15:34",10787.000,"cc",28345.854,6,0.100,9144.000,0.200,1508.000,0.300,119.000,0.500,15.000,1.000,1.000,5.000,0
"05/12/08","02:15:40",11857.000,"cc",28313.346,6,0.100,10045.000,0.200,1657.000,0.300,138.000,0.500,15.000,1.000,2.000,5.000,0
"05/12/08","02:15:46",7682.000,"cc",28274.217,6,0.100,6516.000,0.200,1065.000,0.300,85.000,0.500,16.000,1.000,0,5.000,0
"05/12/08","02:15:52",10841.000,"cc",28316.469,6,0.100,9219.000,0.200,1509.000,0.300,106.000,0.500,7.000,1.000,0,5.000,0
"05/12/08","02:15:58",8104.000,"cc",28360.242,6,0.100,6875.000,0.200,1160.000,0.300,66.000,0.500,3.000,1.000,0,5.000,0
"05/12/08","02:16:04",10135.000,"cc",28295.723,6,0.100,8591.000,0.200,1452.000,0.300,87.000,0.500,5.000,1.000,0,5.000,0
"05/12/08","02:16:10",12231.000,"cc",28290.000,6,0.100,10438.000,0.200,1689.000,0.300,94.000,0.500,10.000,1.000,0,5.000,0
"05/12/08","02:16:16",12101.000,"cc",28315.145,6,0.100,10304.000,0.200,1694.000,0.300,92.000,0.500,11.000,1.000,0,5.000,0
"05/12/08","02:16:22",12176.000,"cc",28374.307,6,0.100,10353.000,0.200,1714.000,0.300,97.000,0.500,10.000,1.000,2.000,5.000,0
"05/12/08","02:16:28",17486.000,"cc",28325.908,6,0.100,14903.000,0.200,2427.000,0.300,143.000,0.500,12.000,1.000,1.000,5.000,0
"05/12/08","02:16:34",20788.000,"cc",28232.938,6,0.100,17776.000,0.200,2831.000,0.300,172.000,0.500,9.000,1.000,0,5.000,0
"05/12/08","02:16:40",19200.000,"cc",28351.148,6,0.100,16602.000,0.200,2438.000,0.300,150.000,0.500,10.000,1.000,0,5.000,0
"05/12/08","02:16:46",19973.000,"cc",28368.846,6,0.100,17113.000,0.200,2678.000,0.300,171.000,0.500,11.000,1.000,0,5.000,0
"05/12/08","02:16:52",17904.000,"cc",28268.266,6,0.100,15277.000,0.200,2469.000,0.300,148.000,0.500,10.000,1.000,0,5.000,0
"05/12/08","02:16:58",16976.000,"cc",28334.004,6,0.100,14505.000,0.200,2340.000,0.300,120.000,0.500,11.000,1.000,0,5.000,0
"05/12/08","02:17:04",10123.000,"cc",28302.010,6,0.100,8545.000,0.200,1495.000,0.300,73.000,0.500,9.000,1.000,1.000,5.000,0
"05/12/08","02:17:10",16444.000,"cc",28353.389,6,0.100,14023.000,0.200,2289.000,0.300,127.000,0.500,5.000,1.000,0,5.000,0
"05/12/08","02:17:16",17936.000,"cc",28320.984,6,0.100,15422.000,0.200,2385.000,0.300,119.000,0.500,10.000,1.000,0,5.000,0
"05/12/08","02:17:22",16344.000,"cc",28351.885,6,0.100,13927.000,0.200,2271.000,0.300,132.000,0.500,14.000,1.000,0,5.000,0
"05/12/08","02:17:28",20924.000,"cc",28302.498,6,0.100,17926.000,0.200,2828.000,0.300,158.000,0.500,12.000,1.000,0,5.000,0
"05/12/08","02:17:34",18709.000,"cc",28281.889,6,0.100,15968.000,0.200,2572.000,0.300,156.000,0.500,13.000,1.000,0,5.000,0
"05/12/08","02:17:40",20721.000,"cc",28307.363,6,0.100,17616.000,0.200,2962.000,0.300,133.000,0.500,9.000,1.000,1.000,5.000,0
"05/12/08","02:17:46",15760.000,"cc",28331.840,6,0.100,13364.000,0.200,2244.000,0.300,139.000,0.500,13.000,1.000,0,5.000,0
"05/12/08","02:17:52",13600.000,"cc",28277.078,6,0.100,11598.000,0.200,1869.000,0.300,125.000,0.500,7.000,1.000,1.000,5.000,0
"05/12/08","02:17:58",17228.000,"cc",28303.486,6,0.100,14623.000,0.200,2458.000,0.300,135.000,0.500,12.000,1.000,0,5.000,0
"05/12/08","02:18:04",21028.000,"cc",28315.916,6,0.100,17954.000,0.200,2908.000,0.300,160.000,0.500,6.000,1.000,0,5.000,0
"05/12/08","02:18:10",26392.000,"cc",28348.365,6,0.100,22616.000,0.200,3575.000,0.300,190.000,0.500,11.000,1.000,0,5.000,0